Hourly Data Report for October 06, 2017

All times are specified in Local Standard Time (LST). Add 1 hour to adjust for Daylight Saving Time where and when it is observed.

YOHIN
NORTHWEST TERRITORIES

61°14'31.000" N
123°44'30.000" W
204.00 m
2204300
71020
XYH

Download Data

Hourly Data (October 2017)
Hourly Data Report for October 6, 2017
Temp Definition
°C
Dew Point Temp Definition
°C
Rel Hum Definition
%
Wind Dir Definition
10's deg

Wind Spd Definition
km/h
Visibility Definition
km
Stn Press Definition
kPa
Hmdx Definition


Wind Chill Definition


Weather Definition


TIME
00:00 12.1 0.9 46 LegendMM LegendMM   96.95     LegendNANA
01:00 13.3 -0.1 40 LegendMM LegendMM   96.84     LegendNANA
02:00 13.1 -0.3 40 LegendMM LegendMM   96.77     LegendNANA
03:00 12.8 -0.3 40 LegendMM LegendMM   96.68     LegendNANA
04:00 12.2 0.0 43 LegendMM LegendMM   96.61     LegendNANA
05:00 11.7 -0.1 44 LegendMM LegendMM   96.57     LegendNANA
06:00
07:00 11.7 -0.1 44 LegendMM LegendMM   96.44     LegendNANA
08:00 11.4 0.2 46 LegendMM LegendMM   96.38     LegendNANA
09:00 11.4 0.6 48 LegendMM LegendMM   96.34     LegendNANA
10:00 11.3 0.8 48 LegendMM LegendMM   96.33     LegendNANA
11:00 11.4 1.2 49 LegendMM LegendMM   96.31     LegendNANA
12:00 12.1 1.1 47 LegendMM LegendMM   96.32     LegendNANA
13:00 12.4 1.2 46 LegendMM LegendMM   96.32     LegendNANA
14:00 12.8 1.3 45 LegendMM LegendMM   96.34     LegendNANA
15:00 13.4 0.9 43 LegendMM LegendMM   96.34     LegendNANA
16:00 13.5 1.2 43 LegendMM LegendMM   96.35     LegendNANA
17:00 13.3 1.4 44 LegendMM LegendMM   96.38     LegendNANA
18:00 12.2 1.9 49 LegendMM LegendMM   96.47     LegendNANA
19:00 10.4 3.1 61 LegendMM LegendMM   96.53     LegendNANA
20:00 9.4 3.2 65 LegendMM LegendMM   96.58     LegendNANA
21:00 9.0 3.4 68 LegendMM LegendMM   96.67     LegendNANA
22:00 7.3 3.1 75 LegendMM LegendMM   96.73     LegendNANA
23:00 6.3 3.1 80 LegendMM LegendMM   96.79     LegendNANA

Notes on Data Quality.

Legend

  • E = Estimated
  • M = Missing
  • NA = Not Available
  • ‡ = Partner data that is not subject to review by the National Climate Archives
Date modified: